AXY583 TBPB-TNCM

Flight info

Callsign AXY583
Flight time 1h 0m
Altitude 24000
Route SKB A517 PJM
Aircraft A343/H-SDE2E3FGHIJ4J5M1RWXY/LB1D1

Departure

Time 2026-04-30 11:39
Airport Grantley Adams International Airport (TBPB)

Arrival

Time 2026-04-30 12:39
Airport Princess Juliana International Airport (TNCM)
Time Latitude Longitude Altitude Speed Heading
2026-04-30 10:26 13.08019 -59.48157 176 ft 0 kts 345°
2026-04-30 10:35 13.08033 -59.48099 176 ft 0 kts 345°
2026-04-30 11:29 13.08011 -59.48093 176 ft 4 kts 339°
2026-04-30 11:30 13.07966 -59.48064 176 ft 4 kts 308°
2026-04-30 11:30 13.07956 -59.48042 176 ft 4 kts 261°
2026-04-30 11:30 13.07957 -59.48033 176 ft 0 kts 253°
2026-04-30 11:34 13.07951 -59.48056 176 ft 5 kts 253°
2026-04-30 11:34 13.07938 -59.48100 176 ft 11 kts 253°
2026-04-30 11:34 13.07897 -59.48256 176 ft 31 kts 255°
2026-04-30 11:34 13.07844 -59.48465 176 ft 30 kts 256°
2026-04-30 11:35 13.07791 -59.48680 176 ft 32 kts 256°
2026-04-30 11:35 13.07710 -59.48890 177 ft 32 kts 256°
2026-04-30 11:35 13.07655 -59.49117 177 ft 34 kts 256°
2026-04-30 11:35 13.07601 -59.49337 177 ft 31 kts 256°
2026-04-30 11:36 13.07546 -59.49560 177 ft 33 kts 256°
2026-04-30 11:36 13.07492 -59.49784 177 ft 30 kts 256°
2026-04-30 11:36 13.07440 -59.49995 177 ft 31 kts 256°
2026-04-30 11:36 13.07385 -59.50216 177 ft 33 kts 256°
2026-04-30 11:37 13.07329 -59.50448 177 ft 34 kts 256°
2026-04-30 11:37 13.07279 -59.50650 176 ft 17 kts 256°
2026-04-30 11:37 13.07212 -59.50725 176 ft 13 kts 185°
2026-04-30 11:37 13.07176 -59.50717 176 ft 5 kts 162°
2026-04-30 11:38 13.07126 -59.50694 177 ft 10 kts 139°
2026-04-30 11:38 13.07115 -59.50629 177 ft 9 kts 77°
2026-04-30 11:38 13.07145 -59.50504 178 ft 47 kts 76°
2026-04-30 11:38 13.07285 -59.49935 180 ft 115 kts 76°
2026-04-30 11:39 13.07528 -59.48949 205 ft 166 kts 77°
2026-04-30 11:39 13.07865 -59.47780 777 ft 174 kts 60°
2026-04-30 11:39 13.08870 -59.47127 1606 ft 183 kts
2026-04-30 11:39 13.10090 -59.47619 2287 ft 211 kts 319°
2026-04-30 11:40 13.11129 -59.48807 2847 ft 238 kts 314°
2026-04-30 11:40 13.12305 -59.50162 3435 ft 268 kts 314°
2026-04-30 11:40 13.13593 -59.51543 4613 ft 269 kts 319°
2026-04-30 11:40 13.15018 -59.52799 5815 ft 271 kts 322°
2026-04-30 11:41 13.16514 -59.53981 6971 ft 272 kts 324°
2026-04-30 11:41 13.18082 -59.55152 7827 ft 286 kts 324°
2026-04-30 11:41 13.19720 -59.56395 8689 ft 298 kts 324°
2026-04-30 11:41 13.21409 -59.57673 9630 ft 305 kts 324°
2026-04-30 11:42 13.23139 -59.58954 10595 ft 310 kts 326°
2026-04-30 11:42 13.24981 -59.60291 10908 ft 339 kts 326°
2026-04-30 11:42 13.26973 -59.61712 11312 ft 358 kts 326°
2026-04-30 11:42 13.29046 -59.63199 11938 ft 368 kts 326°
2026-04-30 11:43 13.31153 -59.64739 12681 ft 375 kts 325°
2026-04-30 11:43 13.33283 -59.66325 13457 ft 381 kts 325°
2026-04-30 11:43 13.35436 -59.67948 14170 ft 387 kts 324°
2026-04-30 11:43 13.37615 -59.69602 14899 ft 391 kts 324°
2026-04-30 11:44 13.39808 -59.71274 15650 ft 395 kts 324°
2026-04-30 11:44 13.42024 -59.72963 16390 ft 399 kts 324°
2026-04-30 11:44 13.44267 -59.74673 17145 ft 403 kts 323°
2026-04-30 11:44 13.46529 -59.76396 17907 ft 407 kts 323°
2026-04-30 11:45 13.48817 -59.78138 18603 ft 411 kts 323°
2026-04-30 11:45 13.51131 -59.79900 19216 ft 416 kts 323°
2026-04-30 11:45 13.53473 -59.81683 19839 ft 421 kts 323°
2026-04-30 11:45 13.55835 -59.83481 20464 ft 424 kts 322°
2026-04-30 11:46 13.58208 -59.85288 20851 ft 426 kts 322°
2026-04-30 11:46 13.60590 -59.87103 20976 ft 427 kts 322°
2026-04-30 11:46 13.62977 -59.88922 20983 ft 428 kts 322°
2026-04-30 11:46 13.65368 -59.90744 20980 ft 428 kts 322°
2026-04-30 11:47 13.67761 -59.92568 20979 ft 428 kts 322°
2026-04-30 11:47 13.70151 -59.94390 20990 ft 428 kts 322°
2026-04-30 11:47 13.72538 -59.96211 20991 ft 428 kts 322°
2026-04-30 11:47 13.74927 -59.98033 20991 ft 428 kts 322°
2026-04-30 11:48 13.77319 -59.99858 20990 ft 428 kts 322°
2026-04-30 11:48 13.79707 -60.01681 20990 ft 428 kts 322°
2026-04-30 11:48 13.82095 -60.03504 20991 ft 427 kts 322°
2026-04-30 11:48 13.84482 -60.05327 20990 ft 427 kts 322°
2026-04-30 11:49 13.86868 -60.07150 20991 ft 427 kts 322°
2026-04-30 11:49 13.89256 -60.08974 20990 ft 428 kts 322°
2026-04-30 11:49 13.91642 -60.10798 20991 ft 428 kts 322°
2026-04-30 11:49 13.94033 -60.12626 20990 ft 427 kts 322°
2026-04-30 11:50 13.96418 -60.14450 20992 ft 427 kts 322°
2026-04-30 11:50 13.98800 -60.16272 20990 ft 426 kts 322°
2026-04-30 11:50 14.01149 -60.18069 20985 ft 426 kts 322°
2026-04-30 11:50 14.03523 -60.19886 20988 ft 425 kts 322°
2026-04-30 11:51 14.05896 -60.21702 20988 ft 425 kts 322°
2026-04-30 11:51 14.08269 -60.23519 20988 ft 425 kts 322°
2026-04-30 11:51 14.10642 -60.25337 20988 ft 425 kts 322°
2026-04-30 11:51 14.13014 -60.27154 20987 ft 425 kts 322°
2026-04-30 11:52 14.15386 -60.28972 20985 ft 425 kts 322°
2026-04-30 11:52 14.17758 -60.30790 20985 ft 425 kts 322°
2026-04-30 11:52 14.20129 -60.32607 20984 ft 425 kts 322°
2026-04-30 11:52 14.22501 -60.34427 20985 ft 425 kts 322°
2026-04-30 11:53 14.24871 -60.36245 20984 ft 425 kts 322°
2026-04-30 11:53 14.27242 -60.38064 20984 ft 425 kts 322°
2026-04-30 11:53 14.28845 -60.39295 20985 ft 425 kts 322°
2026-04-30 11:53 14.31215 -60.41114 20984 ft 425 kts 322°
2026-04-30 11:54 14.33584 -60.42934 20982 ft 424 kts 322°
2026-04-30 11:54 14.35949 -60.44750 20983 ft 424 kts 322°
2026-04-30 11:54 14.38313 -60.46566 20982 ft 424 kts 322°
2026-04-30 11:54 14.40675 -60.48382 20983 ft 424 kts 322°
2026-04-30 11:55 14.43039 -60.50199 20985 ft 424 kts 322°
2026-04-30 11:55 14.45401 -60.52016 20983 ft 424 kts 322°
2026-04-30 11:55 14.47764 -60.53834 20982 ft 424 kts 322°
2026-04-30 11:55 14.50127 -60.55651 20982 ft 424 kts 322°
2026-04-30 11:56 14.52489 -60.57469 20978 ft 424 kts 322°
2026-04-30 11:56 14.54816 -60.59261 20980 ft 423 kts 322°
2026-04-30 11:56 14.57179 -60.61080 20980 ft 423 kts 322°
2026-04-30 11:56 14.59540 -60.62898 20979 ft 423 kts 322°
2026-04-30 11:57 14.61901 -60.64717 20977 ft 423 kts 322°
2026-04-30 11:57 14.64262 -60.66536 20977 ft 423 kts 322°
2026-04-30 11:57 14.66621 -60.68355 20978 ft 423 kts 321°
2026-04-30 11:57 14.68982 -60.70176 20977 ft 423 kts 321°
2026-04-30 11:58 14.71340 -60.71994 20979 ft 423 kts 321°
2026-04-30 11:58 14.73698 -60.73814 20982 ft 423 kts 321°
2026-04-30 11:58 14.76055 -60.75633 20987 ft 423 kts 321°
2026-04-30 11:58 14.78412 -60.77452 20985 ft 423 kts 321°
2026-04-30 11:59 14.80769 -60.79272 20985 ft 423 kts 321°
2026-04-30 11:59 14.83127 -60.81093 20985 ft 423 kts 321°
2026-04-30 11:59 14.85481 -60.82912 20984 ft 423 kts 321°
2026-04-30 11:59 14.87836 -60.84732 20996 ft 423 kts 321°
2026-04-30 12:00 14.90191 -60.86552 20995 ft 423 kts 321°
2026-04-30 12:00 14.92547 -60.88374 20998 ft 423 kts 321°
2026-04-30 12:00 14.94902 -60.90195 20999 ft 423 kts 321°
2026-04-30 12:00 14.96717 -60.91599 20998 ft 423 kts 321°
2026-04-30 12:01 14.99072 -60.93422 20998 ft 423 kts 321°
2026-04-30 12:01 15.01427 -60.95244 21003 ft 423 kts 321°
2026-04-30 12:01 15.03778 -60.97064 21001 ft 422 kts 321°
2026-04-30 12:01 15.06156 -60.98849 21001 ft 422 kts 323°
2026-04-30 12:02 15.08606 -61.00522 21001 ft 423 kts 325°
2026-04-30 12:02 15.11068 -61.02186 21002 ft 422 kts 324°
2026-04-30 12:02 15.13503 -61.03889 21001 ft 422 kts 323°
2026-04-30 12:02 15.15915 -61.05649 21002 ft 431 kts 322°
2026-04-30 12:03 15.18389 -61.07521 21001 ft 449 kts 321°
2026-04-30 12:03 15.23445 -61.11450 21000 ft 455 kts 321°
2026-04-30 12:03 15.25969 -61.13428 21001 ft 455 kts 321°
2026-04-30 12:04 15.28495 -61.15408 21000 ft 455 kts 321°
2026-04-30 12:04 15.31018 -61.17385 21004 ft 455 kts 321°
2026-04-30 12:04 15.33544 -61.19361 21004 ft 455 kts 321°
2026-04-30 12:04 15.36070 -61.21336 21008 ft 455 kts 321°
2026-04-30 12:05 15.38594 -61.23308 21004 ft 454 kts 321°
2026-04-30 12:05 15.41116 -61.25279 21005 ft 454 kts 321°
2026-04-30 12:05 15.43633 -61.27248 21001 ft 453 kts 320°
2026-04-30 12:05 15.46152 -61.29218 21001 ft 453 kts 321°
2026-04-30 12:06 15.48664 -61.31183 20992 ft 453 kts 321°
2026-04-30 12:06 15.51150 -61.33128 20994 ft 453 kts 321°
2026-04-30 12:06 15.53666 -61.35098 20991 ft 453 kts 320°
2026-04-30 12:06 15.56178 -61.37065 20993 ft 453 kts 320°
2026-04-30 12:07 15.58689 -61.39033 20994 ft 453 kts 320°
2026-04-30 12:07 15.61198 -61.41000 20994 ft 453 kts 320°
2026-04-30 12:07 15.63714 -61.42973 20996 ft 453 kts 320°
2026-04-30 12:07 15.66226 -61.44942 20996 ft 453 kts 320°
2026-04-30 12:08 15.68737 -61.46912 20996 ft 453 kts 320°
2026-04-30 12:08 15.71247 -61.48881 21001 ft 453 kts 320°
2026-04-30 12:08 15.73755 -61.50849 21001 ft 452 kts 320°
2026-04-30 12:08 15.76261 -61.52817 21002 ft 452 kts 320°
2026-04-30 12:09 15.78768 -61.54786 21003 ft 451 kts 320°
2026-04-30 12:09 15.81269 -61.56751 21004 ft 451 kts 320°
2026-04-30 12:09 15.83773 -61.58719 21004 ft 451 kts 320°
2026-04-30 12:09 15.86276 -61.60687 21007 ft 451 kts 320°
2026-04-30 12:10 15.88781 -61.62657 21007 ft 451 kts 320°
2026-04-30 12:10 15.91284 -61.64626 21007 ft 451 kts 320°
2026-04-30 12:10 15.93781 -61.66590 21007 ft 451 kts 320°
2026-04-30 12:10 15.96292 -61.68566 21008 ft 451 kts 320°
2026-04-30 12:11 15.98792 -61.70536 20994 ft 451 kts 320°
2026-04-30 12:11 16.01288 -61.72502 20993 ft 451 kts 320°
2026-04-30 12:11 16.03794 -61.74477 20994 ft 451 kts 320°
2026-04-30 12:11 16.06296 -61.76448 20993 ft 451 kts 320°
2026-04-30 12:12 16.08800 -61.78423 20992 ft 452 kts 320°
2026-04-30 12:12 16.11301 -61.80395 20992 ft 451 kts 320°
2026-04-30 12:12 16.13804 -61.82370 20991 ft 451 kts 320°
2026-04-30 12:12 16.16302 -61.84341 20991 ft 451 kts 320°
2026-04-30 12:13 16.18804 -61.86316 20993 ft 451 kts 320°
2026-04-30 12:13 16.21305 -61.88292 20993 ft 451 kts 320°
2026-04-30 12:13 16.23807 -61.90269 20993 ft 451 kts 320°
2026-04-30 12:13 16.26307 -61.92244 20998 ft 451 kts 320°
2026-04-30 12:14 16.28806 -61.94219 20998 ft 451 kts 320°
2026-04-30 12:14 16.31308 -61.96198 20998 ft 451 kts 320°
2026-04-30 12:14 16.33808 -61.98175 20999 ft 451 kts 320°
2026-04-30 12:14 16.36308 -62.00153 20998 ft 451 kts 320°
2026-04-30 12:15 16.38808 -62.02132 20998 ft 451 kts 320°
2026-04-30 12:15 16.41307 -62.04111 21000 ft 451 kts 320°
2026-04-30 12:15 16.43803 -62.06088 20989 ft 451 kts 320°
2026-04-30 12:15 16.46267 -62.08040 21005 ft 451 kts 320°
2026-04-30 12:16 16.48761 -62.10017 21002 ft 450 kts 320°
2026-04-30 12:16 16.51253 -62.11992 21001 ft 451 kts 320°
2026-04-30 12:16 16.53744 -62.13968 21000 ft 451 kts 320°
2026-04-30 12:16 16.56240 -62.15949 20998 ft 451 kts 320°
2026-04-30 12:17 16.61226 -62.19907 20998 ft 451 kts 320°
2026-04-30 12:17 16.63722 -62.21889 20997 ft 451 kts 320°
2026-04-30 12:17 16.66214 -62.23868 20996 ft 450 kts 320°
2026-04-30 12:18 16.68706 -62.25849 20994 ft 450 kts 320°
2026-04-30 12:18 16.71199 -62.27830 20994 ft 450 kts 320°
2026-04-30 12:18 16.73689 -62.29810 20994 ft 450 kts 320°
2026-04-30 12:18 16.76177 -62.31789 20986 ft 450 kts 319°
2026-04-30 12:19 16.78668 -62.33770 20989 ft 449 kts 319°
2026-04-30 12:19 16.81152 -62.35748 20991 ft 449 kts 319°
2026-04-30 12:19 16.83632 -62.37723 20990 ft 449 kts 319°
2026-04-30 12:19 16.86108 -62.39696 20988 ft 449 kts 319°
2026-04-30 12:20 16.88593 -62.41677 20994 ft 449 kts 319°
2026-04-30 12:20 16.91074 -62.43655 21007 ft 449 kts 319°
2026-04-30 12:20 16.93556 -62.45634 21006 ft 449 kts 319°
2026-04-30 12:20 16.95998 -62.47582 21005 ft 449 kts 319°
2026-04-30 12:21 16.98513 -62.49589 21006 ft 449 kts 319°
2026-04-30 12:21 17.00994 -62.51570 21005 ft 449 kts 319°
2026-04-30 12:21 17.03475 -62.53551 21004 ft 449 kts 319°
2026-04-30 12:21 17.05955 -62.55531 20990 ft 449 kts 319°
2026-04-30 12:22 17.08433 -62.57511 20985 ft 449 kts 319°
2026-04-30 12:22 17.10904 -62.59486 20990 ft 449 kts 319°
2026-04-30 12:22 17.13359 -62.61449 20993 ft 448 kts 319°
2026-04-30 12:22 17.15828 -62.63423 20966 ft 445 kts 319°
2026-04-30 12:23 17.18280 -62.65384 20500 ft 443 kts 319°
2026-04-30 12:23 17.20725 -62.67340 20030 ft 441 kts 319°
2026-04-30 12:23 17.23152 -62.69283 19358 ft 438 kts 320°
2026-04-30 12:23 17.25561 -62.71213 18751 ft 434 kts 320°
2026-04-30 12:24 17.27962 -62.73128 18158 ft 433 kts 321°
2026-04-30 12:24 17.30511 -62.74777 17402 ft 430 kts 328°
2026-04-30 12:24 17.33135 -62.76244 16765 ft 424 kts 330°
2026-04-30 12:24 17.35765 -62.77609 16037 ft 420 kts 332°
2026-04-30 12:25 17.38386 -62.78915 15463 ft 413 kts 333°
2026-04-30 12:25 17.40960 -62.80177 14898 ft 404 kts 333°
2026-04-30 12:25 17.43469 -62.81405 14181 ft 389 kts 333°
2026-04-30 12:25 17.45809 -62.82587 13499 ft 357 kts 329°
2026-04-30 12:26 17.47798 -62.84021 12905 ft 343 kts 320°
2026-04-30 12:26 17.49622 -62.85618 12391 ft 340 kts 317°
2026-04-30 12:26 17.51364 -62.87277 11875 ft 338 kts 315°
2026-04-30 12:26 17.53069 -62.88981 11376 ft 340 kts 315°
2026-04-30 12:27 17.54745 -62.90694 11101 ft 328 kts 314°
2026-04-30 12:27 17.56308 -62.92298 10951 ft 304 kts 315°
2026-04-30 12:27 17.57790 -62.93816 10842 ft 293 kts 315°
2026-04-30 12:27 17.59231 -62.95287 10701 ft 285 kts 315°
2026-04-30 12:28 17.60634 -62.96712 10540 ft 279 kts 315°
2026-04-30 12:28 17.62028 -62.98125 10222 ft 279 kts 316°
2026-04-30 12:28 17.63432 -62.99544 9883 ft 281 kts 316°
2026-04-30 12:28 17.64843 -63.00968 9512 ft 282 kts 316°
2026-04-30 12:29 17.66252 -63.02390 9167 ft 281 kts 316°
2026-04-30 12:29 17.67663 -63.03813 8826 ft 286 kts 316°
2026-04-30 12:29 17.69140 -63.05302 8732 ft 299 kts 316°
2026-04-30 12:29 17.70625 -63.06800 8569 ft 292 kts 316°
2026-04-30 12:30 17.72082 -63.08272 8216 ft 291 kts 316°
2026-04-30 12:30 17.73535 -63.09740 7746 ft 288 kts 316°
2026-04-30 12:30 17.74971 -63.11193 7124 ft 284 kts 317°
2026-04-30 12:30 17.76379 -63.12617 6676 ft 280 kts 317°
2026-04-30 12:31 17.77780 -63.14034 6300 ft 280 kts 317°
2026-04-30 12:31 17.79178 -63.15448 5974 ft 277 kts 317°
2026-04-30 12:31 17.80563 -63.16848 5594 ft 276 kts 317°
2026-04-30 12:31 17.81944 -63.18245 5228 ft 275 kts 316°
2026-04-30 12:32 17.83314 -63.19630 4884 ft 273 kts 317°
2026-04-30 12:32 17.84679 -63.21012 4533 ft 272 kts 316°
2026-04-30 12:32 17.86033 -63.22384 4187 ft 271 kts 317°
2026-04-30 12:32 17.87388 -63.23754 3844 ft 270 kts 317°
2026-04-30 12:33 17.88735 -63.25117 3500 ft 269 kts 317°
2026-04-30 12:33 17.90087 -63.26479 3146 ft 269 kts 318°
2026-04-30 12:33 17.91631 -63.27572 2775 ft 267 kts 337°
2026-04-30 12:33 17.93391 -63.28117 2607 ft 270 kts 350°
2026-04-30 12:34 17.95272 -63.28479 2588 ft 272 kts 352°
2026-04-30 12:34 17.97141 -63.28794 2583 ft 272 kts 353°
2026-04-30 12:34 17.98981 -63.29043 2548 ft 259 kts
2026-04-30 12:34 18.00624 -63.28627 2421 ft 239 kts 36°
2026-04-30 12:35 18.01622 -63.27410 2334 ft 203 kts 68°
2026-04-30 12:35 18.01970 -63.26056 2133 ft 183 kts 82°
2026-04-30 12:35 18.02152 -63.24787 1989 ft 170 kts 84°
2026-04-30 12:35 18.02305 -63.23611 1885 ft 159 kts 84°
2026-04-30 12:36 18.02456 -63.22489 1761 ft 148 kts 84°
2026-04-30 12:36 18.02597 -63.21470 1680 ft 132 kts 85°
2026-04-30 12:36 18.02723 -63.20577 1630 ft 123 kts 84°
2026-04-30 12:36 18.02860 -63.19698 1571 ft 119 kts 83°
2026-04-30 12:37 18.03002 -63.18826 1350 ft 123 kts 84°
2026-04-30 12:37 18.03115 -63.17923 1096 ft 124 kts 84°
2026-04-30 12:37 18.03232 -63.17032 905 ft 120 kts 83°
2026-04-30 12:37 18.03340 -63.16162 723 ft 119 kts 84°
2026-04-30 12:38 18.03457 -63.15301 629 ft 122 kts 82°
2026-04-30 12:38 18.03542 -63.14717 531 ft 120 kts 81°
2026-04-30 12:38 18.03671 -63.13856 369 ft 119 kts 79°
2026-04-30 12:38 18.03804 -63.13009 238 ft 116 kts 82°
2026-04-30 12:39 18.03914 -63.12166 84 ft 117 kts 83°
2026-04-30 12:39 18.04022 -63.11379 26 ft 82 kts 81°
2026-04-30 12:39 18.04074 -63.11150 30 ft 7 kts 30°
2026-04-30 12:39 18.04132 -63.11161 28 ft 6 kts 345°
2026-04-30 12:40 18.04151 -63.11194 25 ft 2 kts 266°
2026-04-30 12:40 18.04140 -63.11248 29 ft 11 kts 257°
2026-04-30 12:40 18.04169 -63.11300 29 ft 10 kts 343°
2026-04-30 12:40 18.04263 -63.11289 27 ft 17 kts 13°
2026-04-30 12:41 18.04334 -63.11293 26 ft 6 kts 351°